Theta_e
315 315 316 316 316 316 317 317 318 319 320 319 318 318 318 316 316 314 307 313 317 323 324 319 319 318 318 312 313 312 299 294 296 296 299 309 310 314 313 311 309 310 313 318 320
315 316 315 316 316 316 317 318 318 318 319 319 318 318 318 316 312 307 315 320 322 324 316 312 310 314 309 308 308 305 297 297 301 300 300 308 311 310 311 309 307 307 311 317 317
315 315 315 316 315 316 317 318 318 318 318 318 317 318 317 316 305 303 319 320 322 322 317 315 314 310 305 306 305 303 298 302 302 302 304 308 309 313 313 309 312 309 310 314 315
315 315 314 315 315 316 317 317 317 317 318 317 317 317 316 312 291 309 318 318 319 319 315 312 309 304 298 298 304 299 303 303 304 301 304 307 311 309 313 312 313 315 314 315 314
315 315 315 315 315 316 317 317 317 316 316 317 316 316 312 302 301 314 315 314 313 313 311 308 304 303 297 300 302 300 302 305 304 301 303 306 307 310 307 305 308 312 314 314 314
315 315 315 315 315 316 316 316 317 317 316 316 314 315 307 296 312 313 311 310 310 310 309 309 305 302 298 299 300 303 302 303 304 302 302 304 305 305 303 307 309 310 312 314 314
315 315 315 315 315 315 316 316 317 317 316 316 314 310 304 301 312 311 310 308 310 310 306 309 308 300 299 298 304 304 298 299 301 301 301 305 300 302 303 307 307 309 311 313 313
314 315 315 315 315 315 316 316 316 317 316 316 314 310 299 311 314 309 309 308 311 311 311 311 310 303 299 301 302 298 299 292 299 299 301 303 299 300 304 306 306 308 310 310 311
314 314 314 314 314 315 315 316 315 316 314 312 309 304 296 312 306 309 309 302 307 309 311 309 306 298 295 290 293 295 290 291 293 299 299 300 301 300 304 305 305 307 308 309 309
313 314 313 312 312 313 315 315 313 310 309 310 307 298 300 299 305 307 310 307 304 305 302 301 298 291 287 290 285 289 291 291 292 295 297 298 298 300 302 304 305 307 308 308 308
312 312 312 311 312 312 313 308 303 300 303 297 297 298 300 305 308 304 308 306 304 300 293 296 290 286 288 293 295 294 293 291 294 295 297 299 298 299 301 303 304 305 307 307 307
312 312 312 311 311 312 308 302 301 302 295 301 300 300 303 304 298 302 307 297 297 291 294 291 288 292 293 294 292 294 293 292 293 294 298 297 297 299 300 302 304 304 304 305 306
310 311 311 311 311 307 305 303 308 305 295 294 300 299 299 302 297 298 303 299 294 291 291 289 290 293 293 291 290 293 292 292 292 293 295 297 294 295 298 299 301 303 305 305 305
310 310 311 310 305 304 302 307 310 304 289 288 294 299 301 302 295 303 305 300 296 291 291 289 293 291 291 288 292 289 295 295 293 294 290 293 291 294 297 297 298 301 301 303 302
310 310 310 309 304 302 304 307 307 302 279 291 294 305 302 296 297 298 305 301 293 292 291 287 288 290 288 290 293 291 295 295 296 295 293 291 293 294 295 295 298 300 302 303 302
309 309 310 307 306 305 307 305 301 287 278 286 295 294 293 295 295 298 299 302 299 294 294 292 296 293 292 292 293 292 293 292 293 292 289 289 289 290 292 296 299 301 302 302 301
309 308 309 306 302 307 306 301 288 282 289 287 289 292 292 291 292 294 293 293 290 286 287 290 291 294 294 290 293 292 291 285 284 286 286 286 286 291 294 295 298 300 301 301 300
308 308 307 307 307 306 303 294 283 286 288 293 291 291 288 291 291 291 290 289 293 291 288 285 284 291 295 292 290 291 291 287 279 282 284 286 287 292 292 298 298 298 299 299 300
307 306 306 306 306 306 298 288 286 287 291 290 291 288 287 290 291 290 291 290 292 292 287 286 285 293 293 294 293 290 289 289 285 284 286 287 290 292 294 296 297 298 299 300 302
304 304 304 305 305 303 294 288 289 292 294 293 287 289 286 289 289 289 289 293 292 294 294 290 285 291 293 294 294 292 292 287 288 282 280 284 286 292 290 294 296 297 299 301 302
304 301 303 305 304 297 291 290 291 295 296 292 289 288 289 288 289 288 288 292 295 294 294 292 290 288 291 289 289 290 289 288 289 286 284 282 286 293 293 296 296 299 300 301 302
303 297 304 305 295 293 293 291 295 294 296 294 293 292 290 290 289 288 288 291 296 296 291 292 290 286 287 292 293 291 289 290 287 284 286 285 287 293 295 297 300 300 300 302 302
300 298 302 301 292 292 293 293 294 294 294 293 292 293 293 290 287 290 291 296 296 295 292 293 288 283 284 287 291 289 289 288 289 289 285 285 287 294 295 295 298 299 300 300 299
298 295 296 298 295 291 291 291 291 295 294 294 293 294 292 290 292 290 290 295 296 295 296 295 288 287 284 286 289 287 288 288 289 287 286 288 288 291 294 295 297 299 299 299 297
297 296 295 293 292 293 292 292 290 290 294 293 291 291 290 288 289 289 291 293 295 295 293 293 287 286 286 287 287 287 288 288 287 289 287 287 287 291 296 297 298 299 298 297 295
297 294 293 292 291 291 291 290 290 290 291 290 289 290 290 289 290 288 290 291 291 293 291 291 287 286 284 285 285 285 288 288 289 288 287 287 289 295 295 299 298 297 295 294 294
297 296 295 291 290 290 291 290 290 292 291 292 290 291 290 291 292 293 293 292 292 291 290 288 288 286 284 283 284 284 288 288 289 290 291 287 293 294 293 296 297 297 295 294 294
Wind_Speed
8 7 9 10 11 11 12 12 13 14 15 12 12 11 12 8 9 10 13 10 11 19 10 6 9 11 9 10 9 6 10 16 21 17 20 11 12 5 3 11 4 4 2 6 22
8 8 9 11 12 11 12 13 14 14 16 15 12 11 10 5 8 12 10 12 15 17 14 13 12 13 9 13 8 13 14 19 10 8 10 13 15 15 10 12 6 7 8 21 21
8 8 10 10 10 11 13 14 14 15 16 14 12 13 9 3 6 3 5 8 17 13 13 11 11 8 15 11 15 14 18 15 5 9 6 13 12 11 10 13 12 17 20 22 22
8 9 9 10 11 13 14 14 14 15 14 14 14 11 3 4 5 2 8 9 9 9 12 8 11 9 5 13 17 14 19 12 9 2 4 11 9 10 16 4 5 15 21 22 22
8 9 10 10 11 13 14 14 14 12 12 14 9 4 3 5 7 3 9 10 8 5 12 15 15 14 9 20 17 21 11 20 9 6 8 6 12 11 10 2 6 19 22 23 19
9 10 10 10 12 13 14 15 15 14 12 13 1 5 4 9 4 3 9 9 7 8 9 14 8 3 7 14 22 16 17 14 13 7 6 11 9 8 5 5 13 19 22 21 20
10 10 11 11 12 13 14 16 18 16 13 11 3 3 7 9 3 5 7 5 6 9 11 5 7 5 3 16 23 11 22 7 15 7 7 9 9 12 6 12 15 17 19 20 19
11 12 11 12 13 14 15 17 18 15 10 9 3 4 6 0 3 8 6 11 11 9 10 10 7 5 11 19 22 12 19 15 16 9 5 13 17 7 11 15 16 17 18 17 18
11 11 13 14 15 14 16 17 16 10 8 3 4 4 7 2 5 6 3 6 11 9 8 10 2 3 6 12 13 15 13 22 10 10 5 12 13 9 11 13 15 16 17 16 15
12 11 13 15 14 15 16 17 7 5 1 3 3 5 2 10 10 5 6 10 6 13 8 7 3 4 4 7 12 18 18 20 13 10 10 15 5 12 13 14 16 16 16 15 15
11 12 13 14 13 13 10 4 3 4 3 3 5 5 9 12 7 6 6 4 12 7 6 5 4 6 10 19 8 19 19 20 7 5 12 15 9 13 13 12 14 15 15 15 14
11 10 12 13 11 12 2 2 2 3 3 4 6 7 5 2 5 4 4 1 1 5 8 3 9 6 4 7 9 16 17 16 7 6 6 12 11 10 12 13 15 16 15 14 13
11 11 12 11 11 2 2 2 2 2 2 4 4 5 4 3 5 6 4 1 3 3 2 4 1 2 9 8 10 15 17 14 14 10 4 15 8 11 10 7 9 11 12 13 14
10 10 10 9 4 1 0 1 1 2 2 5 3 1 3 4 3 3 4 3 2 2 2 1 5 5 11 7 18 12 8 13 17 17 10 4 11 12 13 12 12 13 13 13 12
10 8 7 4 2 1 2 1 0 3 2 8 4 4 5 4 6 3 2 5 2 3 3 3 1 4 6 8 9 5 9 10 16 13 11 8 3 12 10 15 16 15 15 13 12
8 6 3 2 1 1 2 1 2 3 3 4 3 5 5 1 2 4 4 2 1 2 5 3 3 2 2 1 1 12 11 6 4 5 9 6 4 9 11 15 17 15 15 13 11
6 4 2 1 2 3 2 1 2 3 1 4 3 1 6 4 3 4 5 3 4 2 5 3 4 3 2 7 4 4 13 3 4 3 6 0 5 5 9 5 4 12 12 10 11
2 2 0 1 2 3 1 2 1 2 2 2 2 1 3 5 2 4 4 4 1 3 3 3 3 6 5 3 3 7 4 3 5 8 6 1 6 5 3 2 2 3 7 9 10
3 2 2 2 3 1 2 1 0 3 1 3 2 1 1 2 3 2 3 3 2 3 3 3 2 2 2 2 1 5 5 3 5 2 4 3 3 5 4 4 5 8 10 11 11
2 3 2 1 1 2 2 2 2 3 2 2 2 2 4 2 4 3 2 1 2 3 4 1 4 2 1 2 8 3 6 4 1 5 6 4 3 3 12 13 10 11 12 12 10
2 3 3 1 2 2 2 2 3 6 5 3 2 3 2 3 3 1 0 1 2 2 3 1 3 3 2 4 2 4 3 4 1 3 4 6 6 2 5 13 14 12 12 12 12
2 2 2 2 3 1 2 3 2 3 4 4 3 3 3 2 2 2 2 2 3 3 2 1 1 3 2 1 2 1 0 1 2 4 1 4 4 1 1 9 12 13 12 11 11
2 2 2 2 3 2 2 3 3 4 4 3 4 5 1 2 3 2 2 1 3 2 2 1 1 5 2 3 2 2 2 2 4 0 0 3 4 1 2 8 10 12 12 11 11
2 2 3 3 2 3 2 3 3 2 3 3 3 3 2 2 1 2 2 1 1 1 4 3 2 5 7 1 2 3 4 3 1 3 3 2 3 3 5 11 12 12 12 13 12
2 1 2 3 5 4 2 1 3 3 3 2 3 4 2 2 2 2 2 2 1 4 3 3 0 1 1 2 0 1 4 8 7 2 5 2 2 2 8 12 13 13 13 13 12
2 3 2 1 1 5 4 4 6 3 3 3 4 1 2 3 3 1 3 2 1 1 1 1 2 1 2 1 2 3 5 6 8 3 6 4 9 8 2 9 11 14 14 13 13
2 1 2 3 3 4 3 3 5 4 3 2 2 2 3 1 2 3 1 3 2 1 3 1 2 1 1 1 2 6 13 12 6 7 8 8 5 7 6 12 15 15 15 15 14
Wind_Direction
338 345 343 339 340 346 341 334 336 339 337 336 336 336 327 314 292 269 260 252 228 254 263 285 218 203 210 217 224 223 230 225 209 223 209 175 178 172 126 146 169 143 113 133 145
337 340 342 343 340 337 334 333 334 335 339 339 328 324 320 299 286 270 260 256 246 247 249 240 232 202 206 212 206 214 223 223 237 229 236 183 203 163 170 157 161 151 108 135 148
333 336 340 342 333 333 332 331 328 334 339 336 327 322 316 312 280 261 322 308 252 261 247 253 242 191 220 213 211 223 234 211 228 246 273 206 206 173 188 191 180 182 153 156 159
330 331 333 335 334 333 328 328 328 333 342 343 332 321 111 184 266 92 347 354 337 301 233 216 214 203 226 213 212 236 223 236 234 271 249 203 180 196 198 80 166 164 158 158 164
326 330 331 333 331 330 329 329 319 334 342 345 349 104 167 230 255 46 348 334 314 271 235 216 219 218 224 202 221 217 215 224 244 267 247 199 196 192 189 349 175 140 156 162 164
328 328 326 327 322 325 328 323 312 300 323 339 276 308 265 270 112 264 311 306 292 269 251 231 208 139 317 252 212 202 219 225 225 248 225 202 188 190 154 143 145 152 159 164 165
328 325 321 317 317 320 322 318 313 302 295 308 268 265 257 279 233 331 305 255 237 260 262 213 180 160 130 226 215 218 202 223 215 212 214 196 190 204 126 152 154 158 159 163 164
319 323 320 318 316 319 318 316 315 304 286 291 266 264 266 59 307 295 276 256 239 239 254 175 136 158 203 289 184 187 200 198 192 190 204 205 198 157 157 160 162 163 160 165 165
320 320 314 314 318 321 317 314 307 307 296 276 225 271 287 148 304 318 171 258 229 196 181 159 135 90 336 246 170 192 183 198 169 203 174 208 184 151 164 172 162 166 165 166 165
320 321 318 313 315 319 321 310 287 307 360 209 228 257 202 323 316 306 256 235 175 158 166 169 165 140 226 242 168 183 189 191 187 178 201 190 165 150 168 174 167 167 167 172 175
316 322 317 314 318 319 331 313 232 180 44 1 318 267 284 316 296 321 336 122 135 168 164 156 174 205 196 225 234 177 180 180 150 158 182 194 166 168 168 176 167 173 176 181 184
321 323 315 317 320 325 289 307 40 2 298 242 285 271 291 351 290 28 18 40 2 142 131 154 225 197 203 288 245 198 178 173 134 155 202 170 163 162 179 187 181 177 182 185 181
312 319 319 322 320 277 358 54 57 264 287 296 310 296 318 335 324 327 317 356 186 129 97 192 117 282 189 219 224 200 186 170 151 141 97 149 150 180 191 195 193 197 192 191 191
308 318 317 321 269 344 20 82 356 295 293 323 339 300 287 277 269 316 306 270 343 55 160 40 296 214 171 190 224 181 197 166 153 161 162 246 172 199 187 201 208 193 197 196 192
305 312 322 359 334 239 47 31 295 236 299 342 319 319 295 354 310 55 335 321 357 65 306 31 34 83 120 211 219 131 156 160 167 161 152 188 201 146 184 206 209 204 202 202 193
298 301 315 172 221 48 114 85 245 245 24 349 319 344 319 48 304 302 346 224 317 39 68 68 217 267 190 274 229 145 120 100 122 149 190 135 266 173 176 204 204 200 199 196 190
291 270 250 143 32 140 166 230 259 17 148 0 316 282 322 357 11 24 1 329 338 276 29 32 325 330 352 86 115 215 143 123 158 196 161 325 234 56 165 158 191 190 186 180 174
281 230 61 28 154 174 204 243 38 224 257 125 171 352 335 336 20 10 342 347 342 286 77 41 99 5 355 11 164 141 164 172 136 169 127 42 214 124 107 93 115 131 145 147 153
125 126 133 75 161 249 240 288 265 216 320 274 181 274 175 260 291 269 254 311 234 226 43 122 46 320 347 353 292 167 174 355 96 71 171 154 225 193 156 153 154 142 146 144 148
168 165 85 95 207 234 251 271 239 230 225 225 359 316 353 108 214 227 270 290 219 203 223 160 116 29 14 278 63 310 135 143 38 156 170 162 244 200 191 184 167 164 154 150 143
180 206 92 15 245 216 262 247 234 227 229 230 305 284 293 307 276 231 201 259 355 26 212 198 284 107 284 11 134 156 142 66 52 339 197 155 207 75 175 180 173 170 161 157 156
173 230 71 225 232 217 235 204 204 225 202 253 254 265 283 292 245 259 252 264 14 329 290 95 72 118 42 354 313 329 87 147 322 147 21 308 115 79 144 186 174 163 162 159 155
189 104 100 266 250 203 206 250 244 205 223 214 235 226 251 279 284 248 227 7 350 318 353 99 202 129 188 191 195 245 81 81 93 31 242 283 84 54 129 175 174 161 161 161 158
186 190 154 209 290 266 206 224 240 209 254 222 277 233 226 249 227 300 244 212 340 114 28 275 131 244 206 168 101 179 178 190 254 227 126 266 357 167 149 163 167 169 169 170 173
209 208 1 194 216 214 192 227 217 226 228 228 221 247 246 263 267 272 296 305 82 19 30 338 341 43 30 50 359 306 191 191 199 209 237 70 279 12 184 182 182 177 175 175 175
232 204 170 265 185 201 187 208 215 198 209 213 247 160 228 244 257 299 206 241 242 67 358 46 110 154 182 28 0 262 236 214 224 231 268 258 272 225 147 173 179 187 181 184 181
126 135 259 124 179 216 211 194 209 188 190 249 287 225 189 247 307 312 16 34 355 302 164 347 149 190 210 360 281 252 224 201 191 202 204 210 246 160 183 196 197 189 187 189 189